Location: Brantley
(31.5822°N, 86.2569°W)
Time: 03:25:05
(UTC+00:00)

Vanguard 2 - Pass Details

Date: 20 February 2026
Orbit: 553 x 2896 km, 32.9° (Epoch: 7 March)

Event Time Altitude Azimuth Distance (km) Brightness Sun altitude
Rises 08:35:30 0° 223° (SW) 5,468 - -48.3°
Reaches altitude 10° 08:40:06 10° 215° (SW) 4,053 - -47.4°
Maximum altitude 08:48:40 33° 157° (SSE) 1,948 - -45.7°
Exits shadow 08:52:46 18° 105° (ESE) 2,248 10.2 -44.9°
Drops below altitude 10° 08:54:17 10° 95° (E) 2,621 10.8 -44.6°
Sets 08:56:37 0° 85° (E) 3,338 11.6 -44.1°
